| time (UTC) | temp C | wind direction | speed KPH | gust KPH | rain 1hr cm | rain 24hr cm | rain mn cm | humidity % | barometer mb |
| 20260507211804 | 15 | 270 | 12.9 | 27.4 | 0.00 | 0.36 | 0.08 | 37 | 1003.8 |
| 20260507210903 | 15 | 288 | 6.4 | 19.3 | 0.00 | 0.38 | 0.08 | 39 | 1003.7 |
| 20260507210003 | 15 | 275 | 12.9 | 38.6 | 0.00 | 0.41 | 0.08 | 36 | 1003.7 |
| 20260507205403 | 15 | 265 | 14.5 | 38.6 | 0.00 | 0.43 | 0.08 | 37 | 1003.8 |
| 20260507204503 | 15 | 262 | 14.5 | 27.4 | 0.00 | 0.46 | 0.08 | 36 | 1003.7 |
| 20260507203709 | 15 | 263 | 12.9 | 27.4 | 0.00 | 0.48 | 0.08 | 35 | 1003.5 |
| 20260507202704 | 15 | 261 | 16.1 | 33.8 | 0.00 | 0.51 | 0.08 | 38 | 1003.6 |
| 20260507201808 | 16 | 259 | 14.5 | 27.4 | 0.00 | 0.56 | 0.08 | 35 | 1003.7 |
| 20260507201009 | 16 | 258 | 9.7 | 24.1 | 0.00 | 0.58 | 0.08 | 35 | 1003.7 |
| 20260507200003 | 16 | 274 | 9.7 | 24.1 | 0.00 | 0.61 | 0.08 | 34 | 1003.9 |
| 20260507195404 | 16 | 257 | 8.0 | 19.3 | 0.00 | 0.61 | 0.08 | 35 | 1003.9 |
| 20260507194504 | 16 | 241 | 11.3 | 22.5 | 0.00 | 0.64 | 0.08 | 35 | 1003.9 |
| 20260507193603 | 16 | 284 | 11.3 | 25.7 | 0.00 | 0.64 | 0.08 | 35 | 1004.0 |
| 20260507192703 | 16 | 274 | 11.3 | 24.1 | 0.00 | 0.66 | 0.08 | 36 | 1004.0 |
| 20260507191803 | 15 | 261 | 14.5 | 27.4 | 0.00 | 0.69 | 0.08 | 33 | 1004.2 |
| 20260507190904 | 15 | 258 | 14.5 | 30.6 | 0.00 | 0.69 | 0.08 | 35 | 1004.2 |
| 20260507190004 | 16 | 244 | 12.9 | 35.4 | 0.00 | 0.69 | 0.08 | 35 | 1004.1 |
| 20260507185403 | 16 | 255 | 12.9 | 27.4 | 0.00 | 0.69 | 0.08 | 36 | 1004.3 |
| 20260507184503 | 15 | 291 | 11.3 | 24.1 | 0.00 | 0.69 | 0.08 | 36 | 1004.3 |
| 20260507183604 | 16 | 279 | 11.3 | 33.8 | 0.00 | 0.69 | 0.08 | 38 | 1004.4 |
| 20260507182703 | 15 | 260 | 14.5 | 33.8 | 0.00 | 0.69 | 0.08 | 35 | 1004.4 |
| 20260507181803 | 15 | 247 | 14.5 | 27.4 | 0.00 | 0.69 | 0.08 | 35 | 1004.5 |
| 20260507180903 | 15 | 252 | 17.7 | 30.6 | 0.00 | 0.69 | 0.08 | 33 | 1004.7 |
| 20260507180003 | 15 | 272 | 14.5 | 29.0 | 0.00 | 0.69 | 0.08 | 36 | 1004.5 |
| 20260507175403 | 15 | 263 | 14.5 | 35.4 | 0.00 | 0.69 | 0.08 | 37 | 1004.6 |
| 20260507174503 | 15 | 254 | 16.1 | 38.6 | 0.00 | 0.69 | 0.08 | 37 | 1004.5 |
| 20260507173603 | 15 | 248 | 17.7 | 32.2 | 0.00 | 0.69 | 0.08 | 37 | 1004.4 |
| 20260507172809 | 15 | 246 | 16.1 | 29.0 | 0.00 | 0.69 | 0.08 | 39 | 1004.5 |
| 20260507171803 | 15 | 275 | 14.5 | 29.0 | 0.00 | 0.69 | 0.08 | 41 | 1004.7 |
| 20260507171010 | 15 | 274 | 14.5 | 29.0 | 0.00 | 0.69 | 0.08 | 43 | 1004.9 |
| 20260507170003 | 15 | 260 | 14.5 | 27.4 | 0.00 | 0.69 | 0.08 | 46 | 1004.9 |
| 20260507165510 | 15 | 266 | 16.1 | 27.4 | 0.00 | 0.69 | 0.08 | 45 | 1005.1 |
| 20260507164503 | 15 | 256 | 11.3 | 32.2 | 0.00 | 0.69 | 0.08 | 48 | 1005.0 |
| 20260507163603 | 15 | 265 | 16.1 | 30.6 | 0.00 | 0.69 | 0.08 | 48 | 1005.1 |
| 20260507162704 | 15 | 248 | 12.9 | 33.8 | 0.00 | 0.69 | 0.08 | 53 | 1005.3 |
| 20260507161803 | 15 | 248 | 11.3 | 24.1 | 0.00 | 0.69 | 0.08 | 57 | 1005.2 |
| 20260507161009 | 14 | 258 | 12.9 | 27.4 | 0.00 | 0.69 | 0.08 | 58 | 1005.3 |
| 20260507160004 | 13 | 280 | 8.0 | 19.3 | 0.00 | 0.69 | 0.08 | 61 | 1005.3 |
| 20260507155404 | 13 | 267 | 11.3 | 30.6 | 0.00 | 0.69 | 0.08 | 59 | 1005.4 |
| 20260507154609 | 13 | 255 | 9.7 | 20.9 | 0.00 | 0.69 | 0.08 | 58 | 1005.4 |
| 20260507153603 | 13 | 265 | 9.7 | 20.9 | 0.00 | 0.69 | 0.08 | 59 | 1005.5 |
| 20260507152703 | 13 | 259 | 12.9 | 22.5 | 0.00 | 0.69 | 0.08 | 61 | 1005.6 |
| 20260507151804 | 13 | 264 | 9.7 | 20.9 | 0.00 | 0.69 | 0.08 | 56 | 1005.7 |
| 20260507150903 | 14 | 258 | 6.4 | 14.5 | 0.00 | 0.69 | 0.08 | 55 | 1005.9 |
| 20260507150005 | 14 | 250 | 11.3 | 22.5 | 0.00 | 0.69 | 0.08 | 58 | 1006.0 |
| 20260507145403 | 13 | 258 | 11.3 | 22.5 | 0.00 | 0.69 | 0.08 | 56 | 1006.0 |
| 20260507144503 | 13 | 277 | 9.7 | 17.7 | 0.00 | 0.69 | 0.08 | 56 | 1006.0 |
| 20260507143603 | 13 | 266 | 6.4 | 19.3 | 0.00 | 0.69 | 0.08 | 55 | 1006.1 |
| 20260507142704 | 13 | 258 | 9.7 | 19.3 | 0.00 | 0.69 | 0.08 | 58 | 1006.0 |
| 20260507141803 | 13 | 270 | 8.0 | 22.5 | 0.00 | 0.69 | 0.08 | 56 | 1006.1 |
| 20260507140904 | 13 | 270 | 8.0 | 17.7 | 0.00 | 0.69 | 0.08 | 58 | 1006.0 |
| 20260507140003 | 13 | 284 | 6.4 | 16.1 | 0.00 | 0.69 | 0.08 | 60 | 1006.0 |
| 20260507135403 | 12 | 263 | 8.0 | 17.7 | 0.00 | 0.69 | 0.08 | 59 | 1005.9 |
| 20260507134503 | 12 | 271 | 8.0 | 16.1 | 0.00 | 0.69 | 0.08 | 61 | 1006.0 |
| 20260507133604 | 12 | 260 | 8.0 | 16.1 | 0.00 | 0.69 | 0.08 | 62 | 1006.0 |
| 20260507132810 | 12 | 286 | 4.8 | 16.1 | 0.00 | 0.69 | 0.08 | 63 | 1006.3 |
| 20260507131803 | 11 | 271 | 9.7 | 22.5 | 0.00 | 0.69 | 0.08 | 64 | 1006.4 |
| 20260507131009 | 11 | 271 | 9.7 | 22.5 | 0.00 | 0.69 | 0.08 | 65 | 1006.4 |
| 20260507130004 | 12 | 285 | 8.0 | 17.7 | 0.00 | 0.69 | 0.08 | 67 | 1006.5 |
| 20260507125404 | 11 | 290 | 6.4 | 17.7 | 0.00 | 0.69 | 0.08 | 67 | 1006.6 |
| 20260507124503 | 11 | 288 | 6.4 | 19.3 | 0.00 | 0.69 | 0.08 | 68 | 1006.5 |
| 20260507123603 | 11 | 283 | 8.0 | 16.1 | 0.00 | 0.69 | 0.08 | 70 | 1006.5 |
| 20260507122705 | 10 | 276 | 6.4 | 16.1 | 0.00 | 0.69 | 0.08 | 71 | 1006.5 |
| 20260507121909 | 10 | 282 | 4.8 | 14.5 | 0.00 | 0.69 | 0.08 | 75 | 1006.6 |
| 20260507120904 | 10 | 283 | 8.0 | 16.1 | 0.00 | 0.69 | 0.08 | 74 | 1006.7 |
| 20260507120005 | 10 | 275 | 6.4 | 16.1 | 0.00 | 0.69 | 0.08 | 74 | 1006.7 |
| 20260507115404 | 10 | 271 | 3.2 | 11.3 | 0.00 | 0.69 | 0.08 | 77 | 1006.6 |
| 20260507114610 | 9 | 298 | 3.2 | 6.4 | 0.00 | 0.69 | 0.08 | 76 | 1006.5 |
| 20260507113603 | 9 | 303 | 4.8 | 12.9 | 0.00 | 0.69 | 0.08 | 77 | 1006.5 |
| 20260507112809 | 9 | 305 | 3.2 | 11.3 | 0.00 | 0.69 | 0.08 | 77 | 1006.4 |
| 20260507111909 | 8 | 302 | 3.2 | 9.7 | 0.00 | 0.69 | 0.08 | 78 | 1006.3 |
| 20260507110904 | 8 | 300 | 3.2 | 12.9 | 0.00 | 0.69 | 0.08 | 77 | 1006.3 |
| 20260507110003 | 8 | 291 | 4.8 | 12.9 | 0.00 | 0.69 | 0.08 | 77 | 1006.5 |
| 20260507105403 | 8 | 284 | 4.8 | 16.1 | 0.00 | 0.69 | 0.08 | 78 | 1006.3 |
| 20260507104505 | 8 | 299 | 6.4 | 16.1 | 0.00 | 0.69 | 0.08 | 79 | 1005.9 |
| 20260507103604 | 8 | 291 | 6.4 | 16.1 | 0.00 | 0.69 | 0.08 | 81 | 1005.8 |
| 20260507102703 | 8 | 297 | 8.0 | 17.7 | 0.00 | 0.69 | 0.08 | 82 | 1005.7 |
| 20260507101804 | 8 | 295 | 6.4 | 16.1 | 0.00 | 0.69 | 0.08 | 84 | 1005.9 |
| 20260507101010 | 8 | 290 | 8.0 | 20.9 | 0.00 | 0.69 | 0.08 | 85 | 1005.7 |
| 20260507100003 | 8 | 283 | 4.8 | 16.1 | 0.00 | 0.69 | 0.08 | 86 | 1005.5 |
| 20260507095403 | 8 | 264 | 8.0 | 17.7 | 0.00 | 0.69 | 0.08 | 86 | 1005.8 |
| 20260507094610 | 8 | 262 | 6.4 | 17.7 | 0.00 | 0.69 | 0.08 | 86 | 1005.9 |
| 20260507093709 | 8 | 255 | 9.7 | 19.3 | 0.00 | 0.69 | 0.08 | 86 | 1005.7 |
| 20260507092704 | 8 | 260 | 4.8 | 12.9 | 0.00 | 0.69 | 0.08 | 85 | 1005.7 |
| 20260507091909 | 8 | 257 | 8.0 | 16.1 | 0.00 | 0.69 | 0.08 | 83 | 1005.9 |
| 20260507090903 | 8 | 267 | 9.7 | 25.7 | 0.00 | 0.69 | 0.08 | 82 | 1006.1 |
| 20260507090110 | 8 | 267 | 9.7 | 25.7 | 0.00 | 0.69 | 0.08 | 81 | 1005.9 |
| 20260507085403 | 8 | 269 | 11.3 | 25.7 | 0.03 | 0.69 | 0.08 | 81 | 1005.6 |
| 20260507084504 | 8 | 273 | 9.7 | 20.9 | 0.03 | 0.69 | 0.08 | 80 | 1005.4 |
| 20260507083604 | 8 | 276 | 11.3 | 22.5 | 0.03 | 0.69 | 0.08 | 80 | 1005.6 |
| 20260507082809 | 9 | 287 | 11.3 | 22.5 | 0.03 | 0.69 | 0.08 | 81 | 1005.1 |
| 20260507081804 | 9 | 279 | 9.7 | 24.1 | 0.03 | 0.69 | 0.08 | 84 | 1005.4 |
| 20260507080903 | 9 | 273 | 9.7 | 17.7 | 0.03 | 0.69 | 0.08 | 85 | 1005.4 |
| 20260507080003 | 10 | 276 | 9.7 | 20.9 | 0.03 | 0.69 | 0.08 | 85 | 1005.7 |
| 20260507075404 | 10 | 282 | 8.0 | 17.7 | 0.00 | 0.66 | 0.05 | 85 | 1005.5 |
| 20260507074504 | 10 | 278 | 8.0 | 29.0 | 0.00 | 0.66 | 0.05 | 84 | 1005.8 |
| 20260507073604 | 10 | 279 | 6.4 | 17.7 | 0.00 | 0.66 | 0.05 | 85 | 1005.4 |
| 20260507072704 | 10 | 271 | 8.0 | 16.1 | 0.00 | 0.66 | 0.05 | 85 | 1005.2 |
| 20260507071910 | 10 | 270 | 9.7 | 19.3 | 0.00 | 0.66 | 0.05 | 85 | 1005.1 |
| 20260507071010 | 10 | 270 | 9.7 | 19.3 | 0.00 | 0.66 | 0.05 | 85 | 1005.2 |
| 20260507070008 | 10 | 265 | 9.7 | 19.3 | 0.00 | 0.66 | 0.05 | 85 | 1004.9 |
| 20260507065404 | 10 | 263 | 9.7 | 19.3 | 0.00 | 0.66 | 0.05 | 85 | 1004.8 |
| 20260507064503 | 10 | 265 | 6.4 | 14.5 | 0.00 | 0.66 | 0.05 | 84 | 1004.9 |
| 20260507063709 | 10 | 273 | 8.0 | 16.1 | 0.00 | 0.66 | 0.05 | 83 | 1004.9 |
| 20260507062704 | 10 | 268 | 8.0 | 16.1 | 0.00 | 0.66 | 0.05 | 82 | 1004.6 |
| 20260507061909 | 10 | 271 | 9.7 | 17.7 | 0.00 | 0.66 | 0.05 | 82 | 1004.6 |
| 20260507060903 | 10 | 274 | 11.3 | 29.0 | 0.00 | 0.66 | 0.05 | 82 | 1004.7 |
| 20260507060110 | 10 | 273 | 12.9 | 29.0 | 0.00 | 0.66 | 0.05 | 83 | 1004.8 |
| 20260507055404 | 10 | 268 | 14.5 | 27.4 | 0.00 | 0.66 | 0.05 | 83 | 1005.0 |
| 20260507054610 | 10 | 266 | 14.5 | 29.0 | 0.00 | 0.66 | 0.05 | 85 | 1005.2 |
| 20260507053709 | 11 | 270 | 11.3 | 24.1 | 0.00 | 0.66 | 0.05 | 86 | 1004.9 |
| 20260507052704 | 11 | 273 | 12.9 | 24.1 | 0.00 | 0.66 | 0.05 | 86 | 1004.9 |
| 20260507051803 | 11 | 261 | 11.3 | 20.9 | 0.00 | 0.66 | 0.05 | 89 | 1005.3 |
| 20260507050903 | 11 | 276 | 9.7 | 19.3 | 0.03 | 0.66 | 0.05 | 90 | 1005.0 |
| 20260507050110 | 11 | 268 | 11.3 | 22.5 | 0.05 | 0.66 | 0.05 | 90 | 1005.2 |
| 20260507045403 | 11 | 273 | 9.7 | 20.9 | 0.05 | 0.66 | 0.05 | 90 | 1005.2 |
| 20260507044503 | 12 | 294 | 9.7 | 25.7 | 0.05 | 0.66 | 0.05 | 90 | 1005.0 |
| 20260507043603 | 12 | 284 | 8.0 | 22.5 | 0.05 | 0.66 | 0.05 | 91 | 1004.9 |
| 20260507042703 | 12 | 268 | 14.5 | 25.7 | 0.05 | 0.66 | 0.05 | 90 | 1004.8 |
| 20260507041803 | 13 | 261 | 12.9 | 22.5 | 0.05 | 0.66 | 0.05 | 90 | 1005.0 |
| 20260507040903 | 13 | 264 | 11.3 | 29.0 | 0.03 | 0.64 | 0.03 | 90 | 1005.0 |
| 20260507040004 | 13 | 255 | 6.4 | 16.1 | 0.00 | 0.61 | 0.00 | 92 | 1004.9 |
| 20260507035404 | 13 | 248 | 6.4 | 14.5 | 0.00 | 0.61 | 0.61 | 92 | 1004.6 |
| 20260507034504 | 13 | 245 | 8.0 | 16.1 | 0.00 | 0.61 | 0.61 | 92 | 1004.5 |
| 20260507033603 | 14 | 250 | 9.7 | 19.3 | 0.00 | 0.61 | 0.61 | 93 | 1004.5 |
| 20260507032703 | 14 | 253 | 8.0 | 19.3 | 0.00 | 0.61 | 0.61 | 94 | 1004.3 |
| 20260507031804 | 14 | 219 | 6.4 | 19.3 | 0.00 | 0.61 | 0.61 | 94 | 1004.0 |
| 20260507030903 | 14 | 203 | 8.0 | 17.7 | 0.00 | 0.61 | 0.61 | 93 | 1003.8 |
| 20260507030003 | 14 | 190 | 9.7 | 19.3 | 0.00 | 0.61 | 0.61 | 93 | 1003.7 |
| 20260507025404 | 14 | 192 | 8.0 | 29.0 | 0.00 | 0.61 | 0.61 | 93 | 1003.8 |
| 20260507024503 | 14 | 187 | 9.7 | 24.1 | 0.00 | 0.61 | 0.61 | 93 | 1003.8 |
| 20260507023604 | 14 | 185 | 9.7 | 30.6 | 0.00 | 0.61 | 0.61 | 93 | 1003.9 |
| 20260507022703 | 14 | 185 | 9.7 | 19.3 | 0.00 | 0.61 | 0.61 | 93 | 1003.8 |
| 20260507021803 | 14 | 182 | 11.3 | 20.9 | 0.00 | 0.61 | 0.61 | 93 | 1003.7 |
| 20260507020904 | 14 | 178 | 9.7 | 20.9 | 0.00 | 0.61 | 0.61 | 93 | 1003.6 |
| 20260507020003 | 14 | 179 | 9.7 | 27.4 | 0.00 | 0.61 | 0.61 | 93 | 1003.9 |
| 20260507015403 | 14 | 184 | 9.7 | 27.4 | 0.00 | 0.61 | 0.61 | 93 | 1003.9 |
| 20260507014503 | 14 | 183 | 9.7 | 19.3 | 0.00 | 0.61 | 0.61 | 93 | 1004.0 |
| 20260507013604 | 14 | 180 | 9.7 | 30.6 | 0.00 | 0.61 | 0.61 | 93 | 1003.9 |
| 20260507012703 | 14 | 182 | 9.7 | 25.7 | 0.00 | 0.61 | 0.61 | 93 | 1004.0 |
| 20260507011803 | 14 | 180 | 9.7 | 25.7 | 0.00 | 0.61 | 0.61 | 93 | 1004.0 |
| 20260507011009 | 14 | 183 | 9.7 | 25.7 | 0.00 | 0.61 | 0.61 | 93 | 1004.0 |
| 20260507010003 | 14 | 180 | 12.9 | 24.1 | 0.00 | 0.61 | 0.61 | 93 | 1004.2 |
| 20260507005509 | 14 | 174 | 11.3 | 30.6 | 0.00 | 0.61 | 0.61 | 93 | 1004.0 |
| 20260507004504 | 14 | 174 | 12.9 | 27.4 | 0.00 | 0.61 | 0.61 | 93 | 1004.1 |
| 20260507003604 | 14 | 175 | 12.9 | 27.4 | 0.00 | 0.61 | 0.61 | 93 | 1004.0 |
| 20260507002703 | 14 | 176 | 14.5 | 27.4 | 0.03 | 0.61 | 0.61 | 93 | 1004.0 |
| 20260507001909 | 14 | 175 | 12.9 | 27.4 | 0.08 | 0.61 | 0.61 | 94 | 1003.9 |
| 20260507000903 | 14 | 185 | 9.7 | 24.1 | 0.13 | 0.61 | 0.61 | 94 | 1003.8 |
| 20260507000003 | 14 | 168 | 9.7 | 22.5 | 0.15 | 0.61 | 0.61 | 94 | 1003.7 |
| 20260506235404 | 14 | 169 | 9.7 | 20.9 | 0.15 | 0.61 | 0.61 | 94 | 1003.8 |
| 20260506234503 | 14 | 172 | 9.7 | 20.9 | 0.18 | 0.61 | 0.61 | 93 | 1003.7 |
| 20260506233604 | 14 | 172 | 11.3 | 24.1 | 0.20 | 0.61 | 0.61 | 93 | 1003.7 |
| 20260506232703 | 14 | 171 | 11.3 | 25.7 | 0.20 | 0.58 | 0.58 | 93 | 1003.8 |
| 20260506231804 | 14 | 171 | 9.7 | 20.9 | 0.15 | 0.51 | 0.51 | 93 | 1003.8 |
| 20260506230903 | 15 | 170 | 9.7 | 27.4 | 0.13 | 0.48 | 0.48 | 93 | 1003.9 |
| 20260506230004 | 15 | 174 | 11.3 | 20.9 | 0.10 | 0.46 | 0.46 | 93 | 1004.2 |
| 20260506225408 | 15 | 172 | 11.3 | 22.5 | 0.10 | 0.46 | 0.46 | 92 | 1004.1 |
| 20260506224609 | 15 | 172 | 11.3 | 24.1 | 0.08 | 0.43 | 0.43 | 92 | 1004.1 |
| 20260506223603 | 15 | 170 | 9.7 | 24.1 | 0.05 | 0.41 | 0.41 | 92 | 1004.2 |
| 20260506222703 | 15 | 166 | 9.7 | 20.9 | 0.05 | 0.38 | 0.38 | 92 | 1004.2 |
| 20260506221804 | 15 | 172 | 9.7 | 27.4 | 0.03 | 0.36 | 0.36 | 92 | 1004.2 |
| 20260506221010 | 15 | 172 | 11.3 | 29.0 | 0.05 | 0.36 | 0.36 | 92 | 1004.3 |
| 20260506220003 | 15 | 164 | 9.7 | 22.5 | 0.08 | 0.36 | 0.36 | 92 | 1004.4 |
| 20260506215403 | 15 | 163 | 6.4 | 17.7 | 0.10 | 0.36 | 0.36 | 92 | 1004.4 |
| 20260506214503 | 15 | 159 | 8.0 | 22.5 | 0.13 | 0.36 | 0.36 | 92 | 1004.4 |
| 20260506213604 | 15 | 159 | 6.4 | 17.7 | 0.15 | 0.36 | 0.36 | 92 | 1004.6 |
| 20260506212809 | 15 | 166 | 6.4 | 17.7 | 0.15 | 0.33 | 0.33 | 92 | 1004.8 |